"SCET";"TARGET";"ELECTRON_DENSITY";"ERROR_FLAG";"ELECTRON_DENSITY_ERROR";"FREQ_FCE";"MEASURED_VALUE";"MEASURED_ITEM";"FREQ_PLASMA";"FREQ_UPPER_HYBRID";"FREQ_R_EQUALS_ZERO";"FREQ_L_EQUALS_ZERO";"ORBIT_NUMBER";"SATURN_RADIUS";"SATURN_IAU_LONGITUDE";"SATURN_SLS4_S_LONGITUDE";"SATURN_SLS4_N_LONGITUDE";"SATURN_SLS5_S_LONGITUDE";"SATURN_SLS5_N_LONGITUDE";"SATURN_LOCAL_TIME";"SATURN_KRONOGRAPHIC_LATITUDE";"SATURN_MAGNETIC_LATITUDE";"SATURN_L";"SATURN_L_OFFSET";"SATURN_SOLAR_EQUATORIAL_X";"SATURN_SOLAR_EQUATORIAL_Y";"SATURN_SOLAR_EQUATORIAL_Z";"SATURN_ALTITUDE";"ENCELADUS_ENCOUNTER_NUMBER";"ENCELADUS_RADIUS";"ENCELADUS_COROTATIONAL_X";"ENCELADUS_COROTATIONAL_Y";"ENCELADUS_COROTATIONAL_Z";"ENCELADUS_TRUE_ANOMALY";"ENCELADUS_PERIAPSIS_TIME";"JUPITER_RADIUS";"JUPITER_SYSTEMIII_LONGITUDE";"JUPITER_MAGNETIC_LATITUDE";"JUPITER_MAGNETIC_LOCAL_TIME";"JUPITER_L";"IO_PHASE";"EARTH_RADIUS";"EARTH_MAGNETIC_LATITUDE";"EARTH_LOCAL_TIME";"EARTH_L"
"[UTC]";"[0=Saturn, 1=Enceladus, 2=Jupiter, 3=Earth]";"[cm-3]";"[0=automated, 1=manual]";"[normalized density error]";"[Hz]";"[Hz]";"[0=upper hybrid frequency, 1=plasma frequency cutoff]";"[Hz]";"[Hz]";"[Hz]";"[Hz}";"[0, A, B, C, 3, 4, ... , 292, 293]";"[Rs where 1Rs=60268km]";"[degrees]";"[degrees]";"[degrees]";"[degrees]";"[degrees]";"[hours]";"[degrees]";"[degrees where offset=2293km north]";"[Rs where 1Rs=60268km]";"[Rs where 1Rs=60268km and offset=2293km north]";"[Rs where 1Rs=60268km]";"[Rs where 1Rs=60268km]";"[Rs where 1Rs=60268km]";"[km where ellipsoid a,b=60268km and c=54364km]";"[E0, E1, E2, ... , E21, E22]";"[Renc where 1Renc=252.1km]";"[Renc where 1Renc=252.1km]";"[Renc where 1Renc=252.1km]";"[Renc where 1Renc=252.1km]";"[degrees]";"[UTC]";"[Rj where 1Rj=71492km]";"[degrees]";"[degrees using JRM09 model]";"[hours using JRM09 model]";"[Rj where 1Rj=71492km]";"[degrees]";"[Re where 1Re=6378.1366km]";"[degrees]";"[hours]";"[Re where 1Re=6378.1366km]"
2006-08-17T00:00:25.318Z;0;7.0310e+01;0;     0.082;  5408.872;  75493.672; 0;  75299.656;  75493.672;  78052.648;  72643.773; 27;   4.670; 252.649; 358.193; 254.289;   2.535; 257.738;  14.250;  -0.923;  -1.389;   4.671;   4.666;   3.882;   2.594;  -0.075;;;;;;;;;;;;;;;;;;
2006-08-17T00:00:33.318Z;0;7.0560e+01;0;     0.076;  5408.872;  75625.695; 0;  75432.023;  75625.695;  78184.922;  72776.047; 27;   4.671; 252.701; 358.244; 254.341;   2.585; 257.790;  14.251;  -0.917;  -1.383;   4.672;   4.667;   3.882;   2.596;  -0.075;;;;;;;;;;;;;;;;;;
2006-08-17T00:00:41.318Z;0;7.0810e+01;0;     0.075;  5408.872;  75760.609; 0;  75567.281;  75760.609;  78320.094;  72911.227; 27;   4.671; 252.753; 358.294; 254.393;   2.636; 257.842;  14.253;  -0.910;  -1.377;   4.672;   4.667;   3.881;   2.598;  -0.074;;;;;;;;;;;;;;;;;;
2006-08-17T00:00:49.318Z;0;7.0050e+01;0;     0.072;  5408.872;  75350.672; 0;  75156.289;  75350.672;  77909.367;  72500.500; 27;   4.672; 252.804; 358.344; 254.445;   2.687; 257.894;  14.255;  -0.904;  -1.370;   4.673;   4.668;   3.881;   2.600;  -0.074;;;;;;;;;;;;;;;;;;
2006-08-17T00:00:57.318Z;0;7.0310e+01;0;     0.072;  5408.872;  75491.031; 0;  75297.008;  75491.031;  78050.000;  72641.125; 27;   4.673; 252.856; 358.395; 254.497;   2.737; 257.946;  14.256;  -0.898;  -1.364;   4.674;   4.668;   3.880;   2.602;  -0.073;;;;;;;;;;;;;;;;;;
2006-08-17T00:01:05.318Z;0;7.1400e+01;0;     0.078;  5391.736;  76071.555; 0;  75880.242;  76071.555;  78623.984;  73232.242; 27;   4.673; 252.907; 358.445; 254.549;   2.788; 257.998;  14.258;  -0.892;  -1.358;   4.674;   4.669;   3.880;   2.604;  -0.073;;;;;;;;;;;;;;;;;;
2006-08-17T00:01:13.318Z;0;7.0320e+01;0;     0.071;  5391.736;  75496.672; 0;  75303.898;  75496.672;  78048.000;  72656.266; 27;   4.674; 252.959; 358.496; 254.601;   2.839; 258.050;  14.259;  -0.885;  -1.352;   4.675;   4.670;   3.879;   2.606;  -0.072;;;;;;;;;;;;;;;;;;
2006-08-17T00:01:21.318Z;0;7.0960e+01;0;     0.074;  5391.736;  75837.094; 0;  75645.188;  75837.094;  78389.078;  72997.336; 27;   4.674; 253.011; 358.546; 254.653;   2.889; 258.102;  14.261;  -0.879;  -1.345;   4.676;   4.670;   3.879;   2.608;  -0.072;;;;;;;;;;;;;;;;;;
2006-08-17T00:01:29.318Z;0;7.0330e+01;0;     0.072;  5391.736;  75500.906; 0;  75308.141;  75500.906;  78052.250;  72660.508; 27;   4.675; 253.062; 358.596; 254.705;   2.940; 258.154;  14.262;  -0.873;  -1.339;   4.676;   4.671;   3.878;   2.610;  -0.071;;;;;;;;;;;;;;;;;;
2006-08-17T00:01:37.318Z;0;7.0290e+01;0;     0.076;  5391.736;  75482.141; 0;  75289.328;  75482.141;  78033.445;  72641.711; 27;   4.676; 253.114; 358.647; 254.757;   2.991; 258.206;  14.264;  -0.867;  -1.333;   4.677;   4.672;   3.878;   2.612;  -0.071;;;;;;;;;;;;;;;;;;
2006-08-17T00:01:45.318Z;0;7.0580e+01;0;     0.075;  5391.736;  75633.375; 0;  75440.945;  75633.375;  78184.969;  72793.234; 27;   4.676; 253.166; 358.697; 254.809;   3.042; 258.258;  14.266;  -0.861;  -1.327;   4.677;   4.672;   3.877;   2.614;  -0.070;;;;;;;;;;;;;;;;;;
2006-08-17T00:01:53.317Z;0;6.9940e+01;0;     0.072;  5391.736;  75291.188; 0;  75097.883;  75291.188;  77842.125;  72450.391; 27;   4.677; 253.217; 358.748; 254.861;   3.092; 258.310;  14.267;  -0.854;  -1.320;   4.678;   4.673;   3.877;   2.616;  -0.070;;;;;;;;;;;;;;;;;;
2006-08-17T00:02:01.317Z;0;7.0640e+01;0;     0.073;  5373.284;  75668.219; 0;  75477.195;  75668.219;  78211.641;  72838.352; 27;   4.678; 253.269; 358.798; 254.913;   3.143; 258.362;  14.269;  -0.848;  -1.314;   4.679;   4.674;   3.876;   2.618;  -0.069;;;;;;;;;;;;;;;;;;
2006-08-17T00:02:09.317Z;0;7.0490e+01;0;     0.075;  5373.284;  75587.492; 0;  75396.266;  75587.492;  78130.758;  72757.477; 27;   4.678; 253.321; 358.849; 254.965;   3.194; 258.415;  14.270;  -0.842;  -1.308;   4.679;   4.674;   3.876;   2.620;  -0.069;;;;;;;;;;;;;;;;;;
2006-08-17T00:02:17.317Z;0;7.0250e+01;0;     0.074;  5373.284;  75457.453; 0;  75265.898;  75457.453;  78000.477;  72627.188; 27;   4.679; 253.372; 358.899; 255.017;   3.245; 258.467;  14.272;  -0.836;  -1.301;   4.680;   4.675;   3.875;   2.622;  -0.068;;;;;;;;;;;;;;;;;;
2006-08-17T00:02:25.317Z;0;7.0200e+01;0;     0.076;  5373.284;  75429.414; 0;  75237.789;  75429.414;  77972.383;  72599.094; 27;   4.680; 253.424; 358.950; 255.069;   3.296; 258.519;  14.273;  -0.830;  -1.295;   4.681;   4.676;   3.875;   2.624;  -0.068;;;;;;;;;;;;;;;;;;
2006-08-17T00:02:33.317Z;0;7.0300e+01;0;     0.076;  5373.284;  75486.508; 0;  75295.023;  75486.508;  78029.586;  72656.297; 27;   4.680; 253.476; 359.000; 255.121;   3.347; 258.571;  14.275;  -0.823;  -1.289;   4.681;   4.676;   3.874;   2.626;  -0.067;;;;;;;;;;;;;;;;;;
2006-08-17T00:02:41.317Z;0;7.0530e+01;0;     0.075;  5373.284;  75607.531; 0;  75416.352;  75607.531;  78150.836;  72777.555; 27;   4.681; 253.527; 359.051; 255.173;   3.398; 258.624;  14.276;  -0.817;  -1.283;   4.682;   4.677;   3.874;   2.627;  -0.067;;;;;;;;;;;;;;;;;;
2006-08-17T00:02:49.317Z;0;7.0810e+01;0;     0.077;  5373.284;  75757.109; 0;  75566.312;  75757.109;  78300.695;  72927.414; 27;   4.682; 253.579; 359.101; 255.225;   3.449; 258.676;  14.278;  -0.811;  -1.276;   4.683;   4.677;   3.873;   2.629;  -0.066;;;;;;;;;;;;;;;;;;
2006-08-17T00:02:57.317Z;0;6.9900e+01;0;     0.072;  5373.284;  75270.672; 0;  75078.641;  75270.672;  77813.336;  72440.047; 27;   4.682; 253.631; 359.152; 255.277;   3.500; 258.728;  14.280;  -0.805;  -1.270;   4.683;   4.678;   3.872;   2.631;  -0.066;;;;;;;;;;;;;;;;;;
2006-08-17T00:03:05.317Z;0;7.0480e+01;0;     0.073;  5354.636;  75578.375; 0;  75388.453;  75578.375;  78113.297;  72758.656; 27;   4.683; 253.682; 359.202; 255.329;   3.551; 258.781;  14.281;  -0.799;  -1.264;   4.684;   4.679;   3.872;   2.633;  -0.065;;;;;;;;;;;;;;;;;;
2006-08-17T00:03:13.317Z;0;7.1340e+01;0;     0.076;  5354.636;  76034.117; 0;  75845.336;  76034.117;  78569.891;  73215.258; 27;   4.684; 253.734; 359.253; 255.381;   3.602; 258.833;  14.283;  -0.792;  -1.258;   4.684;   4.679;   3.871;   2.635;  -0.065;;;;;;;;;;;;;;;;;;
2006-08-17T00:03:21.317Z;0;7.1410e+01;0;     0.076;  5354.636;  76075.719; 0;  75887.039;  76075.719;  78611.570;  73256.938; 27;   4.684; 253.786; 359.303; 255.433;   3.653; 258.885;  14.284;  -0.786;  -1.251;   4.685;   4.680;   3.871;   2.637;  -0.064;;;;;;;;;;;;;;;;;;
2006-08-17T00:03:29.317Z;0;7.0780e+01;0;     0.077;  5354.636;  75737.977; 0;  75548.453;  75737.977;  78273.195;  72918.562; 27;   4.685; 253.838; 359.354; 255.485;   3.704; 258.938;  14.286;  -0.780;  -1.245;   4.686;   4.681;   3.870;   2.639;  -0.064;;;;;;;;;;;;;;;;;;
2006-08-17T00:03:37.317Z;0;7.1550e+01;0;     0.075;  5354.636;  76146.602; 0;  75958.102;  76146.602;  78682.586;  73327.953; 27;   4.685; 253.889; 359.404; 255.537;   3.755; 258.990;  14.287;  -0.774;  -1.239;   4.686;   4.681;   3.870;   2.641;  -0.063;;;;;;;;;;;;;;;;;;
2006-08-17T00:03:45.317Z;0;7.0960e+01;0;     0.075;  5354.636;  75835.727; 0;  75646.453;  75835.727;  78371.133;  73016.492; 27;   4.686; 253.941; 359.455; 255.589;   3.806; 259.043;  14.289;  -0.768;  -1.233;   4.687;   4.682;   3.869;   2.643;  -0.063;;;;;;;;;;;;;;;;;;
2006-08-17T00:03:53.317Z;0;7.0900e+01;0;     0.075;  5354.636;  75804.227; 0;  75614.867;  75804.227;  78339.570;  72984.938; 27;   4.687; 253.993; 359.505; 255.642;   3.857; 259.095;  14.290;  -0.761;  -1.226;   4.688;   4.683;   3.869;   2.645;  -0.062;;;;;;;;;;;;;;;;;;
2006-08-17T00:04:01.317Z;0;7.0880e+01;0;     0.074;  5336.240;  75789.797; 0;  75601.703;  75789.797;  78316.891;  72980.648; 27;   4.687; 254.045; 359.556; 255.694;   3.909; 259.148;  14.292;  -0.755;  -1.220;   4.688;   4.683;   3.868;   2.647;  -0.062;;;;;;;;;;;;;;;;;;
2006-08-17T00:04:09.317Z;0;7.0910e+01;0;     0.074;  5336.240;  75808.906; 0;  75620.859;  75808.906;  78336.039;  72999.797; 27;   4.688; 254.096; 359.607; 255.746;   3.960; 259.200;  14.294;  -0.749;  -1.214;   4.689;   4.684;   3.868;   2.649;  -0.061;;;;;;;;;;;;;;;;;;
2006-08-17T00:04:17.317Z;0;7.0820e+01;0;     0.073;  5336.240;  75760.141; 0;  75571.977;  75760.141;  78287.180;  72950.938; 27;   4.689; 254.148; 359.657; 255.798;   4.011; 259.253;  14.295;  -0.743;  -1.208;   4.690;   4.685;   3.867;   2.651;  -0.061;;;;;;;;;;;;;;;;;;
2006-08-17T00:04:25.317Z;0;7.1090e+01;0;     0.078;  5336.240;  75901.750; 0;  75713.938;  75901.750;  78429.055;  73092.812; 27;   4.689; 254.200; 359.708; 255.850;   4.062; 259.306;  14.297;  -0.737;  -1.201;   4.690;   4.685;   3.867;   2.653;  -0.060;;;;;;;;;;;;;;;;;;
2006-08-17T00:04:33.316Z;0;7.0590e+01;0;     0.075;  5336.240;  75637.750; 0;  75449.281;  75637.750;  78164.562;  72828.320; 27;   4.690; 254.252; 359.758; 255.902;   4.114; 259.358;  14.298;  -0.731;  -1.195;   4.691;   4.686;   3.866;   2.655;  -0.060;;;;;;;;;;;;;;;;;;
2006-08-17T00:04:41.316Z;0;7.0800e+01;0;     0.076;  5336.240;  75750.836; 0;  75562.648;  75750.836;  78277.859;  72941.617; 27;   4.691; 254.303; 359.809; 255.954;   4.165; 259.411;  14.300;  -0.724;  -1.189;   4.691;   4.686;   3.866;   2.657;  -0.059;;;;;;;;;;;;;;;;;;
2006-08-17T00:04:49.316Z;0;7.0340e+01;0;     0.078;  5336.240;  75505.297; 0;  75316.492;  75505.297;  78031.859;  72695.617; 27;   4.691; 254.355; 359.859; 256.007;   4.216; 259.464;  14.301;  -0.718;  -1.183;   4.692;   4.687;   3.865;   2.659;  -0.059;;;;;;;;;;;;;;;;;;
2006-08-17T00:04:57.316Z;0;7.0610e+01;0;     0.075;  5336.240;  75648.297; 0;  75459.852;  75648.297;  78175.125;  72838.891; 27;   4.692; 254.407; 359.910; 256.059;   4.268; 259.516;  14.303;  -0.712;  -1.176;   4.693;   4.688;   3.864;   2.661;  -0.058;;;;;;;;;;;;;;;;;;
2006-08-17T00:05:05.316Z;0;7.0810e+01;0;     0.075;  5319.132;  75752.602; 0;  75565.625;  75752.602;  78271.977;  72952.844; 27;   4.693; 254.459; 359.961; 256.111;   4.319; 259.569;  14.304;  -0.706;  -1.170;   4.693;   4.688;   3.864;   2.662;  -0.058;;;;;;;;;;;;;;;;;;
2006-08-17T00:05:13.316Z;0;7.0190e+01;0;     0.076;  5319.132;  75419.297; 0;  75231.492;  75419.297;  77938.055;  72618.922; 27;   4.693; 254.511;   0.011; 256.163;   4.370; 259.622;  14.306;  -0.700;  -1.164;   4.694;   4.689;   3.863;   2.664;  -0.057;;;;;;;;;;;;;;;;;;
2006-08-17T00:05:21.316Z;0;7.0250e+01;0;     0.071;  5319.132;  75452.680; 0;  75264.953;  75452.680;  77971.500;  72652.367; 27;   4.694; 254.562;   0.062; 256.215;   4.422; 259.674;  14.308;  -0.693;  -1.158;   4.695;   4.690;   3.863;   2.666;  -0.057;;;;;;;;;;;;;;;;;;
2006-08-17T00:05:29.316Z;0;7.1050e+01;0;     0.077;  5319.132;  75879.109; 0;  75692.445;  75879.109;  78398.719;  73079.586; 27;   4.695; 254.614;   0.112; 256.267;   4.473; 259.727;  14.309;  -0.687;  -1.151;   4.695;   4.690;   3.862;   2.668;  -0.056;;;;;;;;;;;;;;;;;;
2006-08-17T00:05:37.316Z;0;7.1000e+01;0;     0.078;  5319.132;  75853.242; 0;  75666.516;  75853.242;  78372.805;  73053.672; 27;   4.695; 254.666;   0.163; 256.320;   4.525; 259.780;  14.311;  -0.681;  -1.145;   4.696;   4.691;   3.862;   2.670;  -0.056;;;;;;;;;;;;;;;;;;
2006-08-17T00:05:45.316Z;0;7.0320e+01;0;     0.072;  5319.132;  75492.961; 0;  75305.336;  75492.961;  78011.852;  72692.719; 27;   4.696; 254.718;   0.214; 256.372;   4.576; 259.833;  14.312;  -0.675;  -1.139;   4.697;   4.692;   3.861;   2.672;  -0.055;;;;;;;;;;;;;;;;;;
2006-08-17T00:05:53.316Z;0;7.0810e+01;0;     0.073;  5319.132;  75750.125; 0;  75563.141;  75750.125;  78269.500;  72950.367; 27;   4.697; 254.770;   0.264; 256.424;   4.628; 259.886;  14.314;  -0.669;  -1.133;   4.697;   4.692;   3.861;   2.674;  -0.055;;;;;;;;;;;;;;;;;;
2006-08-17T00:06:01.316Z;0;7.0780e+01;0;     0.077;  5300.372;  75737.234; 0;  75551.539;  75737.234;  78248.188;  72947.820; 27;   4.697; 254.822;   0.315; 256.476;   4.679; 259.939;  14.315;  -0.663;  -1.127;   4.698;   4.693;   3.860;   2.676;  -0.054;;;;;;;;;;;;;;;;;;
2006-08-17T00:06:09.316Z;0;7.1020e+01;0;     0.077;  5300.372;  75860.352; 0;  75674.953;  75860.352;  78371.531;  73071.164; 27;   4.698; 254.874;   0.366; 256.529;   4.731; 259.992;  14.317;  -0.656;  -1.120;   4.698;   4.694;   3.860;   2.678;  -0.054;;;;;;;;;;;;;;;;;;
2006-08-17T00:06:17.316Z;0;7.1020e+01;0;     0.079;  5300.372;  75862.016; 0;  75676.625;  75862.016;  78373.203;  73072.828; 27;   4.699; 254.925;   0.416; 256.581;   4.783; 260.045;  14.318;  -0.650;  -1.114;   4.699;   4.694;   3.859;   2.680;  -0.053;;;;;;;;;;;;;;;;;;
2006-08-17T00:06:25.316Z;0;7.0420e+01;0;     0.078;  5300.372;  75545.781; 0;  75359.609;  75545.781;  78056.383;  72756.008; 27;   4.699; 254.977;   0.467; 256.633;   4.834; 260.098;  14.320;  -0.644;  -1.108;   4.700;   4.695;   3.859;   2.682;  -0.053;;;;;;;;;;;;;;;;;;
2006-08-17T00:06:33.316Z;0;7.1160e+01;0;     0.080;  5300.372;  75937.641; 0;  75752.438;  75937.641;  78448.961;  73148.594; 27;   4.700; 255.029;   0.518; 256.685;   4.886; 260.150;  14.321;  -0.638;  -1.102;   4.700;   4.696;   3.858;   2.684;  -0.052;;;;;;;;;;;;;;;;;;
2006-08-17T00:06:41.316Z;0;7.0630e+01;0;     0.078;  5300.372;  75655.297; 0;  75469.398;  75655.297;  78166.102;  72865.727; 27;   4.700; 255.081;   0.568; 256.737;   4.938; 260.203;  14.323;  -0.632;  -1.095;   4.701;   4.696;   3.857;   2.686;  -0.052;;;;;;;;;;;;;;;;;;
2006-08-17T00:06:49.316Z;0;6.9590e+01;0;     0.081;  5300.372;  75101.289; 0;  74914.016;  75101.289;  77611.062;  72310.695; 27;   4.701; 255.133;   0.619; 256.790;   4.989; 260.257;  14.325;  -0.626;  -1.089;   4.702;   4.697;   3.857;   2.688;  -0.051;;;;;;;;;;;;;;;;;;
2006-08-17T00:06:57.316Z;0;7.1730e+01;0;     0.079;  5300.372;  76238.344; 0;  76053.867;  76238.344;  78750.219;  73449.844; 27;   4.702; 255.185;   0.670; 256.842;   5.041; 260.310;  14.326;  -0.620;  -1.083;   4.702;   4.698;   3.856;   2.690;  -0.051;;;;;;;;;;;;;;;;;;
2006-08-17T00:07:13.315Z;0;7.0960e+01;0;     0.080;  5281.836;  75832.094; 0;  75647.922;  75832.094;  78334.930;  73053.094; 27;   4.703; 255.289;   0.771; 256.947;   5.145; 260.416;  14.329;  -0.607;  -1.071;   4.704;   4.699;   3.855;   2.694;  -0.050;;;;;;;;;;;;;;;;;;
2006-08-17T00:07:21.315Z;0;7.1700e+01;0;     0.079;  5281.836;  76224.023; 0;  76040.805;  76224.023;  78727.570;  73445.734; 27;   4.704; 255.341;   0.822; 256.999;   5.196; 260.469;  14.331;  -0.601;  -1.064;   4.704;   4.700;   3.855;   2.695;  -0.049;;;;;;;;;;;;;;;;;;
2006-08-17T00:07:29.315Z;0;7.2880e+01;0;     0.091;  5281.836;  76844.094; 0;  76662.359;  76844.094;  79348.750;  74066.914; 27;   4.704; 255.393;   0.873; 257.051;   5.248; 260.522;  14.332;  -0.595;  -1.058;   4.705;   4.700;   3.854;   2.697;  -0.049;;;;;;;;;;;;;;;;;;
2006-08-17T00:07:53.315Z;0;7.2820e+01;0;     0.090;  5281.836;  76811.930; 0;  76630.117;  76811.930;  79316.531;  74034.695; 27;   4.706; 255.548;   1.025; 257.208;   5.404; 260.682;  14.337;  -0.577;  -1.040;   4.707;   4.702;   3.853;   2.703;  -0.047;;;;;;;;;;;;;;;;;;
2006-08-17T00:08:01.315Z;0;7.1600e+01;0;     0.081;  5265.008;  76166.781; 0;  75984.594;  76166.781;  78662.688;  73397.680; 27;   4.707; 255.600;   1.076; 257.260;   5.456; 260.735;  14.338;  -0.570;  -1.033;   4.708;   4.703;   3.852;   2.705;  -0.047;;;;;;;;;;;;;;;;;;
2006-08-17T00:08:09.315Z;0;7.2700e+01;0;     0.086;  5265.008;  76746.922; 0;  76566.117;  76746.922;  79243.859;  73978.852; 27;   4.708; 255.652;   1.126; 257.313;   5.508; 260.788;  14.340;  -0.564;  -1.027;   4.708;   4.703;   3.851;   2.707;  -0.046;;;;;;;;;;;;;;;;;;
2006-08-17T00:08:17.315Z;0;7.2940e+01;0;     0.087;  5265.008;  76872.180; 0;  76691.664;  76872.180;  79369.336;  74104.328; 27;   4.708; 255.704;   1.177; 257.365;   5.560; 260.842;  14.342;  -0.558;  -1.021;   4.709;   4.704;   3.851;   2.709;  -0.046;;;;;;;;;;;;;;;;;;
2006-08-17T00:08:25.315Z;0;7.2870e+01;0;     0.090;  5265.008;  76836.203; 0;  76655.602;  76836.203;  79333.297;  74068.289; 27;   4.709; 255.756;   1.228; 257.417;   5.612; 260.895;  14.343;  -0.552;  -1.015;   4.710;   4.705;   3.850;   2.711;  -0.045;;;;;;;;;;;;;;;;;;
2006-08-17T00:08:33.315Z;0;7.0770e+01;0;     0.076;  5265.008;  75727.992; 0;  75544.742;  75727.992;  78223.102;  72958.094; 27;   4.710; 255.808;   1.279; 257.470;   5.664; 260.948;  14.345;  -0.546;  -1.009;   4.710;   4.705;   3.850;   2.713;  -0.045;;;;;;;;;;;;;;;;;;
2006-08-17T00:08:41.315Z;0;7.1040e+01;0;     0.075;  5265.008;  75873.680; 0;  75690.789;  75873.680;  78369.055;  73104.047; 27;   4.710; 255.860;   1.330; 257.522;   5.716; 261.002;  14.346;  -0.540;  -1.002;   4.711;   4.706;   3.849;   2.715;  -0.044;;;;;;;;;;;;;;;;;;
2006-08-17T00:08:49.315Z;0;7.2940e+01;0;     0.089;  5265.008;  76874.688; 0;  76694.180;  76874.688;  79371.852;  74106.844; 27;   4.711; 255.912;   1.380; 257.574;   5.768; 261.055;  14.348;  -0.534;  -0.996;   4.711;   4.707;   3.849;   2.717;  -0.044;;;;;;;;;;;;;;;;;;
2006-08-17T00:08:57.315Z;0;7.1790e+01;0;     0.077;  5265.008;  76268.695; 0;  76086.750;  76268.695;  78764.781;  73499.773; 27;   4.712; 255.964;   1.431; 257.627;   5.820; 261.108;  14.349;  -0.528;  -0.990;   4.712;   4.707;   3.848;   2.719;  -0.043;;;;;;;;;;;;;;;;;;
2006-08-17T00:09:05.315Z;0;7.1740e+01;0;     0.080;  5246.584;  76241.562; 0;  76060.828;  76241.562;  78729.344;  73482.758; 27;   4.712; 256.016;   1.482; 257.679;   5.872; 261.162;  14.351;  -0.521;  -0.984;   4.713;   4.708;   3.848;   2.721;  -0.043;;;;;;;;;;;;;;;;;;
2006-08-17T00:09:13.315Z;0;7.1460e+01;0;     0.079;  5246.584;  76093.328; 0;  75912.242;  76093.328;  78580.844;  73334.258; 27;   4.713; 256.068;   1.533; 257.732;   5.924; 261.215;  14.352;  -0.515;  -0.978;   4.713;   4.709;   3.847;   2.723;  -0.042;;;;;;;;;;;;;;;;;;
2006-08-17T00:09:21.315Z;0;7.2810e+01;0;     0.088;  5246.584;  76805.195; 0;  76625.789;  76805.195;  79293.969;  74047.391; 27;   4.714; 256.120;   1.584; 257.784;   5.976; 261.269;  14.354;  -0.509;  -0.971;   4.714;   4.709;   3.846;   2.724;  -0.042;;;;;;;;;;;;;;;;;;
2006-08-17T00:09:29.315Z;0;7.1410e+01;0;     0.078;  5246.584;  76068.172; 0;  75887.023;  76068.172;  78555.641;  73309.055; 27;   4.714; 256.172;   1.634; 257.836;   6.029; 261.322;  14.355;  -0.503;  -0.965;   4.715;   4.710;   3.846;   2.726;  -0.041;;;;;;;;;;;;;;;;;;
2006-08-17T00:09:37.315Z;0;7.0710e+01;0;     0.078;  5246.584;  75694.859; 0;  75512.812;  75694.859;  78181.656;  72935.078; 27;   4.715; 256.224;   1.685; 257.889;   6.081; 261.376;  14.357;  -0.497;  -0.959;   4.715;   4.711;   3.845;   2.728;  -0.041;;;;;;;;;;;;;;;;;;
2006-08-17T00:09:45.314Z;0;7.2680e+01;0;     0.086;  5246.584;  76735.586; 0;  76556.016;  76735.586;  79224.242;  73977.656; 27;   4.716; 256.276;   1.736; 257.941;   6.133; 261.430;  14.358;  -0.491;  -0.953;   4.716;   4.711;   3.845;   2.730;  -0.040;;;;;;;;;;;;;;;;;;
2006-08-17T00:09:53.314Z;0;7.3220e+01;0;     0.087;  5246.584;  77020.430; 0;  76841.523;  77020.430;  79509.586;  74263.000; 27;   4.716; 256.328;   1.787; 257.993;   6.185; 261.483;  14.360;  -0.485;  -0.947;   4.717;   4.712;   3.844;   2.732;  -0.040;;;;;;;;;;;;;;;;;;
2006-08-17T00:10:01.314Z;0;7.2780e+01;0;     0.085;  5229.896;  76788.594; 0;  76610.289;  76788.594;  79269.852;  74039.953; 27;   4.717; 256.380;   1.838; 258.046;   6.236; 261.537;  14.362;  -0.479;  -0.941;   4.717;   4.713;   3.844;   2.734;  -0.039;;;;;;;;;;;;;;;;;;
2006-08-17T00:10:09.314Z;0;7.1740e+01;0;     0.079;  5229.896;  76237.453; 0;  76057.859;  76237.453;  78717.742;  73487.844; 27;   4.718; 256.432;   1.889; 258.098;   6.287; 261.590;  14.363;  -0.472;  -0.934;   4.718;   4.713;   3.843;   2.736;  -0.039;;;;;;;;;;;;;;;;;;
2006-08-17T00:10:17.314Z;0;7.1490e+01;0;     0.075;  5229.896;  76108.680; 0;  75928.781;  76108.680;  78588.742;  73358.844; 27;   4.718; 256.484;   1.939; 258.151;   6.338; 261.643;  14.365;  -0.466;  -0.928;   4.719;   4.714;   3.843;   2.738;  -0.038;;;;;;;;;;;;;;;;;;
2006-08-17T00:10:25.314Z;0;7.1500e+01;0;     0.072;  5229.896;  76113.445; 0;  75933.555;  76113.445;  78593.516;  73363.617; 27;   4.719; 256.537;   1.990; 258.203;   6.389; 261.696;  14.366;  -0.460;  -0.922;   4.719;   4.715;   3.842;   2.740;  -0.038;;;;;;;;;;;;;;;;;;
2006-08-17T00:10:33.314Z;0;7.0410e+01;0;     0.072;  5229.896;  75532.742; 0;  75351.469;  75532.742;  78011.773;  72781.875; 27;   4.720; 256.589;   2.041; 258.256;   6.440; 261.749;  14.368;  -0.454;  -0.916;   4.720;   4.715;   3.842;   2.742;  -0.037;;;;;;;;;;;;;;;;;;
2006-08-17T00:10:41.314Z;0;7.1290e+01;0;     0.078;  5229.896;  76003.984; 0;  75823.836;  76003.984;  78483.859;  73253.961; 27;   4.720; 256.641;   2.092; 258.308;   6.491; 261.802;  14.369;  -0.448;  -0.910;   4.721;   4.716;   3.841;   2.744;  -0.037;;;;;;;;;;;;;;;;;;
2006-08-17T00:10:49.314Z;0;7.1580e+01;0;     0.078;  5229.896;  76156.242; 0;  75976.453;  76156.242;  78636.391;  73406.492; 27;   4.721; 256.693;   2.143; 258.361;   6.542; 261.855;  14.371;  -0.442;  -0.904;   4.721;   4.717;   3.840;   2.746;  -0.036;;;;;;;;;;;;;;;;;;
2006-08-17T00:10:57.314Z;0;7.1920e+01;0;     0.073;  5229.896;  76336.945; 0;  76157.586;  76336.945;  78817.414;  73587.516; 27;   4.722; 256.745;   2.194; 258.413;   6.593; 261.908;  14.372;  -0.436;  -0.897;   4.722;   4.717;   3.840;   2.748;  -0.036;;;;;;;;;;;;;;;;;;
2006-08-17T00:11:05.314Z;0;7.1420e+01;0;     0.076;  5211.668;  76067.938; 0;  75889.195;  76067.938;  78539.750;  73328.086; 27;   4.722; 256.797;   2.245; 258.465;   6.644; 261.961;  14.374;  -0.430;  -0.891;   4.723;   4.718;   3.839;   2.750;  -0.035;;;;;;;;;;;;;;;;;;
2006-08-17T00:11:13.314Z;0;7.1500e+01;0;     0.075;  5211.668;  76108.812; 0;  75930.164;  76108.812;  78580.703;  73369.031; 27;   4.723; 256.849;   2.296; 258.518;   6.695; 262.014;  14.375;  -0.424;  -0.885;   4.723;   4.719;   3.839;   2.752;  -0.035;;;;;;;;;;;;;;;;;;
2006-08-17T00:11:21.314Z;0;7.1630e+01;0;     0.076;  5211.668;  76178.930; 0;  76000.445;  76178.930;  78650.938;  73439.273; 27;   4.724; 256.901;   2.347; 258.570;   6.745; 262.067;  14.377;  -0.418;  -0.879;   4.724;   4.719;   3.838;   2.753;  -0.034;;;;;;;;;;;;;;;;;;